When you browse on this site, cookies collect data to enhance your experience and personalize the content and advertising you see.
Visit our Privacy Policy to learn more. By continuing to use the site, you agree to this use of cookies and data.
  • In Czech Republic
  • List of Countries
  • For 7 days
  • Water Temperature
  • Satellite Maps
  • Weather Map
  • Weather Widgets
  • user-avatar
    Login

    Hourly Weather Oaxaca

    Today, 19 June, Wednesday

    Time Temperature Precipitation Wind Pressure Humidity
    00:00 +20°C° 0 mm 1 mps 634 mmHg 85%
    01:00 +20°C° 0 mm 1 mps 633 mmHg 85%
    02:00 +18°C° 0 mm 0 mps 633 mmHg 86%
    03:00 +17°C° 0 mm 0 mps 632 mmHg 87%
    04:00 +19°C° 0 mm 1 mps 632 mmHg 87%
    05:00 +19°C° 0 mm 1 mps 632 mmHg 86%
    06:00 +19°C° 0 mm 1 mps 632 mmHg 86%
    07:00 +21°C° 0 mm 1 mps 633 mmHg 79%
    08:00 +23°C° 0 mm 1 mps 634 mmHg 72%
    09:00 +25°C° 0 mm 1 mps 635 mmHg 64%
    10:00 +27°C° 0 mm 1 mps 635 mmHg 57%
    11:00 +28°C° 0 mm 1 mps 635 mmHg 50%
    12:00 +30°C° 0 mm 1 mps 636 mmHg 43%
    13:00 +30°C° 0 mm 1 mps 635 mmHg 42%
    14:00 +30°C° 0 mm 1 mps 635 mmHg 42%
    15:00 +31°C° 0 mm 2 mps 634 mmHg 41%
    16:00 +30°C° 0.3 mm 2 mps 634 mmHg 49%
    17:00 +29°C° 0.3 mm 2 mps 633 mmHg 56%
    18:00 +27°C° 0.3 mm 2 mps 633 mmHg 64%
    19:00 +26°C° 1 mm 2 mps 633 mmHg 71%
    20:00 +24°C° 1 mm 1 mps 633 mmHg 79%
    21:00 +22°C° 1 mm 1 mps 633 mmHg 87%
    22:00 +22°C° 0.6 mm 1 mps 633 mmHg 88%
    23:00 +21°C° 0.6 mm 1 mps 633 mmHg 88%

    Tomorrow, 20 June, Thursday

    Time Temperature Precipitation Wind Pressure Humidity
    00:00 +21°C° 0.6 mm 1 mps 633 mmHg 89%
    01:00 +20°C° 0 mm 1 mps 632 mmHg 88%
    02:00 +18°C° 0 mm 0 mps 632 mmHg 87%
    03:00 +18°C° 0 mm 0 mps 632 mmHg 86%
    04:00 +17°C° 0 mm 0 mps 631 mmHg 86%
    05:00 +19°C° 0 mm 1 mps 631 mmHg 86%
    06:00 +19°C° 0 mm 1 mps 631 mmHg 86%
    07:00 +21°C° 0 mm 1 mps 632 mmHg 78%
    08:00 +23°C° 0 mm 1 mps 633 mmHg 70%
    09:00 +24°C° 0 mm 0 mps 634 mmHg 62%
    10:00 +27°C° 0 mm 1 mps 635 mmHg 55%
    11:00 +29°C° 0 mm 1 mps 635 mmHg 48%
    12:00 +30°C° 0 mm 1 mps 635 mmHg 41%
    13:00 +30°C° 0.1 mm 1 mps 635 mmHg 43%
    14:00 +30°C° 0.1 mm 2 mps 634 mmHg 46%
    15:00 +30°C° 0.1 mm 2 mps 634 mmHg 48%
    16:00 +28°C° 1 mm 2 mps 633 mmHg 57%
    17:00 +27°C° 1 mm 2 mps 633 mmHg 65%
    18:00 +26°C° 1 mm 1 mps 632 mmHg 74%
    19:00 +24°C° 1 mm 1 mps 632 mmHg 78%
    20:00 +23°C° 1 mm 1 mps 632 mmHg 83%
    21:00 +22°C° 1 mm 1 mps 633 mmHg 87%
    22:00 +21°C° 0 mm 1 mps 633 mmHg 88%
    23:00 +21°C° 0 mm 1 mps 633 mmHg 89%

    Day after tomorrow, 21 June, Friday

    Time Temperature Precipitation Wind Pressure Humidity
    00:00 +21°C° 0 mm 1 mps 633 mmHg 90%
    01:00 +20°C° 0 mm 1 mps 632 mmHg 90%
    02:00 +20°C° 0 mm 1 mps 632 mmHg 89%
    03:00 +20°C° 0 mm 1 mps 631 mmHg 89%
    04:00 +19°C° 0 mm 1 mps 631 mmHg 88%
    05:00 +19°C° 0 mm 1 mps 631 mmHg 88%
    06:00 +19°C° 0 mm 1 mps 631 mmHg 88%
    07:00 +21°C° 0 mm 1 mps 633 mmHg 80%
    08:00 +23°C° 0 mm 1 mps 634 mmHg 73%
    09:00 +25°C° 0 mm 1 mps 635 mmHg 65%
    10:00 +27°C° 0 mm 1 mps 635 mmHg 58%
    11:00 +28°C° 0 mm 1 mps 635 mmHg 50%
    12:00 +30°C° 0 mm 1 mps 635 mmHg 43%
    13:00 +30°C° 0.1 mm 1 mps 635 mmHg 45%
    14:00 +30°C° 0.1 mm 1 mps 634 mmHg 46%
    15:00 +30°C° 0.1 mm 1 mps 634 mmHg 48%
    16:00 +28°C° 0.8 mm 2 mps 634 mmHg 56%
    17:00 +27°C° 0.8 mm 2 mps 633 mmHg 65%
    18:00 +26°C° 0.8 mm 2 mps 633 mmHg 73%
    19:00 +24°C° 0.9 mm 1 mps 633 mmHg 78%
    20:00 +23°C° 0.9 mm 1 mps 633 mmHg 83%
    21:00 +22°C° 0.9 mm 1 mps 633 mmHg 88%
    22:00 +19°C° 0.2 mm 0 mps 634 mmHg 88%
    23:00 +19°C° 0.2 mm 0 mps 634 mmHg 88%

    22 June, Saturday

    Time Temperature Precipitation Wind Pressure Humidity
    00:00 +19°C° 0.2 mm 0 mps 634 mmHg 89%
    01:00 +19°C° 0 mm 0 mps 633 mmHg 88%
    02:00 +18°C° 0 mm 0 mps 633 mmHg 88%
    03:00 +20°C° 0 mm 1 mps 633 mmHg 87%
    04:00 +18°C° 0.1 mm 0 mps 633 mmHg 88%
    05:00 +19°C° 0.1 mm 0 mps 633 mmHg 88%
    06:00 +19°C° 0.1 mm 0 mps 633 mmHg 88%
    07:00 +20°C° 0 mm 0 mps 634 mmHg 82%
    08:00 +21°C° 0 mm 0 mps 634 mmHg 77%
    09:00 +23°C° 0 mm 0 mps 635 mmHg 72%
    10:00 +26°C° 0.7 mm 1 mps 635 mmHg 65%
    11:00 +27°C° 0.7 mm 1 mps 635 mmHg 59%
    12:00 +29°C° 0.7 mm 1 mps 635 mmHg 52%
    13:00 +29°C° 0.9 mm 1 mps 635 mmHg 54%
    14:00 +28°C° 0.9 mm 2 mps 634 mmHg 55%
    15:00 +28°C° 0.9 mm 2 mps 634 mmHg 57%
    16:00 +27°C° 1.6 mm 2 mps 634 mmHg 63%
    17:00 +26°C° 1.6 mm 1 mps 633 mmHg 69%
    18:00 +25°C° 1.6 mm 1 mps 633 mmHg 75%
    19:00 +24°C° 0.5 mm 1 mps 633 mmHg 78%
    20:00 +23°C° 0.5 mm 1 mps 633 mmHg 83%
    21:00 +22°C° 0.5 mm 1 mps 634 mmHg 88%
    22:00 +22°C° 0.7 mm 1 mps 634 mmHg 89%
    23:00 +21°C° 0.7 mm 1 mps 634 mmHg 90%

    23 June, Sunday

    Time Temperature Precipitation Wind Pressure Humidity
    00:00 +21°C° 0.7 mm 1 mps 634 mmHg 91%
    01:00 +21°C° 0.4 mm 1 mps 633 mmHg 91%
    02:00 +21°C° 0.4 mm 1 mps 633 mmHg 92%
    03:00 +21°C° 0.4 mm 1 mps 632 mmHg 92%
    04:00 +21°C° 0.6 mm 1 mps 633 mmHg 92%
    05:00 +21°C° 0.6 mm 1 mps 633 mmHg 93%
    06:00 +19°C° 0.6 mm 0 mps 633 mmHg 93%
    07:00 +22°C° 0.5 mm 1 mps 633 mmHg 88%
    08:00 +23°C° 0.5 mm 1 mps 634 mmHg 83%
    09:00 +24°C° 0.5 mm 1 mps 634 mmHg 79%
    10:00 +25°C° 0.7 mm 1 mps 634 mmHg 75%
    11:00 +26°C° 0.7 mm 1 mps 634 mmHg 71%
    12:00 +27°C° 0.7 mm 1 mps 634 mmHg 67%
    13:00 +27°C° 1.8 mm 1 mps 634 mmHg 67%
    14:00 +27°C° 1.8 mm 1 mps 633 mmHg 66%
    15:00 +27°C° 1.8 mm 1 mps 633 mmHg 66%
    16:00 +26°C° 1.7 mm 1 mps 633 mmHg 70%
    17:00 +26°C° 1.7 mm 1 mps 632 mmHg 74%
    18:00 +25°C° 1.7 mm 1 mps 632 mmHg 78%
    19:00 +24°C° 1.5 mm 1 mps 633 mmHg 81%
    20:00 +23°C° 1.5 mm 1 mps 633 mmHg 84%
    21:00 +22°C° 1.5 mm 1 mps 633 mmHg 86%
    22:00 +20°C° 0.7 mm 0 mps 633 mmHg 87%
    23:00 +19°C° 0.7 mm 0 mps 633 mmHg 87%

    24 June, Monday

    Time Temperature Precipitation Wind Pressure Humidity
    00:00 +19°C° 0.7 mm 0 mps 633 mmHg 88%
    01:00 +19°C° 0.3 mm 0 mps 632 mmHg 88%
    02:00 +19°C° 0.3 mm 0 mps 632 mmHg 89%
    03:00 +18°C° 0.3 mm 0 mps 632 mmHg 89%
    04:00 +18°C° 0.1 mm 0 mps 632 mmHg 90%
    05:00 +18°C° 0.1 mm 0 mps 631 mmHg 91%
    06:00 +17°C° 0.1 mm 0 mps 631 mmHg 91%
    07:00 +19°C° 0 mm 0 mps 632 mmHg 85%
    08:00 +21°C° 0 mm 0 mps 633 mmHg 79%
    09:00 +23°C° 0 mm 0 mps 634 mmHg 73%
    10:00 +24°C° 0.5 mm 0 mps 634 mmHg 69%
    11:00 +27°C° 0.5 mm 1 mps 634 mmHg 65%
    12:00 +28°C° 0.5 mm 1 mps 634 mmHg 61%
    13:00 +28°C° 0.7 mm 1 mps 634 mmHg 61%
    14:00 +28°C° 0.7 mm 1 mps 633 mmHg 61%
    15:00 +28°C° 0.7 mm 1 mps 633 mmHg 61%
    16:00 +27°C° 1.4 mm 1 mps 633 mmHg 66%
    17:00 +26°C° 1.4 mm 1 mps 632 mmHg 72%
    18:00 +25°C° 1.4 mm 1 mps 632 mmHg 77%
    19:00 +24°C° 1.1 mm 1 mps 632 mmHg 81%
    20:00 +23°C° 1.1 mm 1 mps 632 mmHg 86%
    21:00 +21°C° 1.1 mm 1 mps 633 mmHg 90%
    22:00 +21°C° 0.5 mm 1 mps 633 mmHg 90%
    23:00 +21°C° 0.5 mm 1 mps 633 mmHg 91%
    Show more